| time (UTC) | temp F | wind direction | speed MPH | gust MPH | rain 1hr in | rain 24hr in | rain mn in | humidity % | barometer mb |
| 20260503050009 | 48 | 293 | 0.0 | 3.0 | 0.00 | 0.00 | 0.00 | 100 | 1015.9 |
| 20260503045507 | 47 | 286 | 0.0 | 4.0 | 0.00 | 0.00 | 0.00 | 100 | 1015.9 |
| 20260503045004 | 47 | 293 | 1.0 | 3.0 | 0.00 | 0.00 | 0.00 | 100 | 1015.9 |
| 20260503044500 | 47 | 271 | 3.0 | 3.0 | 0.00 | 0.00 | 0.00 | 100 | 1016.2 |
| 20260503043958 | 47 | 291 | 0.0 | 2.0 | 0.00 | 0.00 | 0.00 | 100 | 1016.2 |
| 20260503043456 | 48 | 285 | 0.0 | 2.0 | 0.00 | 0.00 | 0.00 | 100 | 1016.2 |
| 20260503042954 | 48 | 298 | 0.0 | 0.0 | 0.00 | 0.00 | 0.00 | 100 | 1015.9 |
| 20260503042452 | 48 | 299 | 1.0 | 2.0 | 0.00 | 0.00 | 0.00 | 100 | 1015.9 |
| 20260503041949 | 48 | 285 | 0.0 | 2.0 | 0.00 | 0.00 | 0.00 | 100 | 1015.9 |
| 20260503041447 | 48 | 296 | 0.0 | 3.0 | 0.00 | 0.00 | 0.00 | 100 | 1015.9 |
| 20260503040945 | 48 | 307 | 2.0 | 3.0 | 0.00 | 0.00 | 0.00 | 100 | 1015.9 |
| 20260503040443 | 47 | 280 | 2.0 | 3.0 | 0.00 | 0.00 | 0.00 | 100 | 1015.9 |
| 20260503035941 | 47 | 283 | 1.0 | 1.0 | 0.00 | 0.00 | 0.00 | 100 | 1015.5 |
| 20260503035439 | 48 | 255 | 0.0 | 0.0 | 0.00 | 0.00 | 0.00 | 100 | 1015.5 |
| 20260503034937 | 48 | 265 | 0.0 | 0.0 | 0.00 | 0.00 | 0.00 | 100 | 1015.5 |
| 20260503034435 | 48 | 271 | 0.0 | 2.0 | 0.00 | 0.00 | 0.00 | 100 | 1015.5 |
| 20260503033932 | 48 | 287 | 0.0 | 0.0 | 0.00 | 0.00 | 0.00 | 100 | 1015.5 |
| 20260503033430 | 48 | 291 | 0.0 | 0.0 | 0.00 | 0.00 | 0.00 | 100 | 1015.5 |
| 20260503032928 | 48 | 292 | 0.0 | 0.0 | 0.00 | 0.00 | 0.00 | 100 | 1015.5 |
| 20260503032425 | 49 | 300 | 0.0 | 2.0 | 0.00 | 0.00 | 0.00 | 100 | 1015.5 |
| 20260503031923 | 49 | 308 | 0.0 | 0.0 | 0.00 | 0.00 | 0.00 | 100 | 1015.5 |
| 20260503031421 | 49 | 330 | 0.0 | 0.0 | 0.00 | 0.00 | 0.00 | 100 | 1015.5 |
| 20260503030919 | 48 | 336 | 0.0 | 0.0 | 0.00 | 0.00 | 0.00 | 100 | 1015.2 |
| 20260503030417 | 48 | 311 | 0.0 | 0.0 | 0.00 | 0.00 | 0.00 | 100 | 1015.2 |
| 20260503025915 | 49 | 263 | 0.0 | 0.0 | 0.00 | 0.00 | 0.00 | 100 | 1015.2 |
| 20260503025413 | 49 | 185 | 0.0 | 0.0 | 0.00 | 0.00 | 0.00 | 100 | 1015.2 |
| 20260503024910 | 49 | 146 | 0.0 | 0.0 | 0.00 | 0.00 | 0.00 | 100 | 1015.2 |
| 20260503024408 | 49 | 96 | 0.0 | 0.0 | 0.00 | 0.00 | 0.00 | 100 | 1015.2 |
| 20260503023906 | 49 | 149 | 0.0 | 0.0 | 0.00 | 0.00 | 0.00 | 100 | 1015.5 |
| 20260503023403 | 49 | 178 | 0.0 | 0.0 | 0.00 | 0.00 | 0.00 | 100 | 1015.2 |
| 20260503022901 | 49 | 185 | 0.0 | 0.0 | 0.00 | 0.00 | 0.00 | 100 | 1015.2 |
| 20260503022359 | 50 | 163 | 0.0 | 0.0 | 0.00 | 0.00 | 0.00 | 100 | 1015.2 |
| 20260503021856 | 50 | 305 | 0.0 | 0.0 | 0.00 | 0.00 | 0.00 | 100 | 1015.5 |
| 20260503021354 | 50 | 290 | 0.0 | 0.0 | 0.00 | 0.00 | 0.00 | 100 | 1015.5 |
| 20260503020850 | 50 | 290 | 0.0 | 0.0 | 0.00 | 0.00 | 0.00 | 100 | 1015.5 |
| 20260503020348 | 50 | 287 | 1.0 | 1.0 | 0.00 | 0.00 | 0.00 | 100 | 1015.5 |
| 20260503015845 | 50 | 286 | 0.0 | 0.0 | 0.00 | 0.00 | 0.00 | 100 | 1015.2 |
| 20260503015343 | 49 | 292 | 0.0 | 0.0 | 0.00 | 0.00 | 0.00 | 100 | 1015.2 |
| 20260503014840 | 49 | 308 | 0.0 | 0.0 | 0.00 | 0.00 | 0.00 | 100 | 1015.2 |
| 20260503014338 | 50 | 299 | 0.0 | 0.0 | 0.00 | 0.00 | 0.00 | 100 | 1015.2 |
| 20260503013836 | 50 | 291 | 0.0 | 0.0 | 0.00 | 0.00 | 0.00 | 100 | 1014.9 |
| 20260503013334 | 50 | 27 | 0.0 | 0.0 | 0.00 | 0.00 | 0.00 | 100 | 1014.9 |
| 20260503012831 | 50 | 56 | 0.0 | 0.0 | 0.00 | 0.00 | 0.00 | 100 | 1014.9 |
| 20260503012329 | 50 | 272 | 0.0 | 0.0 | 0.00 | 0.00 | 0.00 | 100 | 1014.9 |
| 20260503011827 | 50 | 47 | 0.0 | 0.0 | 0.00 | 0.00 | 0.00 | 100 | 1014.9 |
| 20260503011325 | 51 | 93 | 0.0 | 0.0 | 0.00 | 0.00 | 0.00 | 100 | 1014.5 |
| 20260503010822 | 51 | 112 | 0.0 | 0.0 | 0.00 | 0.00 | 0.00 | 100 | 1014.5 |
| 20260503010320 | 51 | 112 | 0.0 | 0.0 | 0.00 | 0.00 | 0.00 | 100 | 1014.5 |
| 20260503005818 | 51 | 115 | 0.0 | 0.0 | 0.00 | 0.00 | 0.00 | 100 | 1014.5 |
| 20260503005316 | 51 | 109 | 0.0 | 0.0 | 0.00 | 0.00 | 0.00 | 100 | 1014.5 |
| 20260503004813 | 52 | 331 | 0.0 | 0.0 | 0.00 | 0.00 | 0.00 | 100 | 1014.5 |
| 20260503004311 | 52 | 223 | 0.0 | 0.0 | 0.00 | 0.00 | 0.00 | 100 | 1014.2 |
| 20260503003809 | 52 | 102 | 0.0 | 0.0 | 0.00 | 0.00 | 0.00 | 100 | 1014.2 |
| 20260503003307 | 52 | 97 | 0.0 | 0.0 | 0.00 | 0.00 | 0.00 | 99 | 1013.8 |
| 20260503002805 | 52 | 97 | 0.0 | 0.0 | 0.00 | 0.00 | 0.00 | 99 | 1013.8 |
| 20260503002305 | 52 | 90 | 0.0 | 0.0 | 0.00 | 0.00 | 0.00 | 99 | 1013.8 |
| 20260503001800 | 52 | 115 | 0.0 | 0.0 | 0.00 | 0.00 | 0.00 | 99 | 1013.8 |
| 20260503001257 | 52 | 64 | 0.0 | 0.0 | 0.00 | 0.00 | 0.00 | 99 | 1013.8 |
| 20260503000755 | 52 | 72 | 0.0 | 0.0 | 0.00 | 0.00 | 0.00 | 99 | 1013.5 |
| 20260503000252 | 53 | 80 | 0.0 | 0.0 | 0.00 | 0.00 | 0.00 | 99 | 1013.5 |
| 20260502235750 | 53 | 2 | 0.0 | 0.0 | 0.00 | 0.00 | 0.00 | 98 | 1013.5 |
| 20260502235248 | 53 | 280 | 0.0 | 0.0 | 0.00 | 0.00 | 0.00 | 98 | 1013.8 |
| 20260502234746 | 53 | 34 | 0.0 | 0.0 | 0.00 | 0.00 | 0.00 | 98 | 1013.5 |
| 20260502234244 | 53 | 96 | 0.0 | 0.0 | 0.00 | 0.00 | 0.00 | 98 | 1013.5 |
| 20260502233741 | 53 | 15 | 0.0 | 0.0 | 0.00 | 0.00 | 0.00 | 98 | 1013.5 |
| 20260502233239 | 53 | 89 | 0.0 | 0.0 | 0.00 | 0.00 | 0.00 | 98 | 1013.5 |
| 20260502232737 | 53 | 30 | 0.0 | 1.0 | 0.00 | 0.00 | 0.00 | 98 | 1013.2 |
| 20260502232235 | 53 | 80 | 0.0 | 0.0 | 0.00 | 0.00 | 0.00 | 97 | 1013.2 |
| 20260502231733 | 53 | 65 | 0.0 | 2.0 | 0.00 | 0.00 | 0.00 | 97 | 1013.2 |
| 20260502231230 | 53 | 125 | 0.0 | 1.0 | 0.00 | 0.00 | 0.00 | 96 | 1013.2 |
| 20260502230728 | 53 | 18 | 0.0 | 3.0 | 0.00 | 0.00 | 0.00 | 95 | 1013.5 |
| 20260502230226 | 53 | 61 | 0.0 | 1.0 | 0.00 | 0.00 | 0.00 | 96 | 1013.2 |
| 20260502225724 | 53 | 10 | 2.0 | 4.0 | 0.00 | 0.00 | 0.00 | 96 | 1013.2 |
| 20260502225222 | 53 | 63 | 1.0 | 6.0 | 0.00 | 0.00 | 0.00 | 95 | 1013.5 |
| 20260502224718 | 53 | 13 | 2.0 | 5.0 | 0.00 | 0.00 | 0.00 | 95 | 1013.2 |
| 20260502224215 | 53 | 3 | 2.0 | 5.0 | 0.00 | 0.00 | 0.00 | 95 | 1013.2 |
| 20260502223712 | 53 | 3 | 3.0 | 5.0 | 0.00 | 0.00 | 0.00 | 95 | 1013.2 |
| 20260502223209 | 53 | 14 | 1.0 | 4.0 | 0.00 | 0.00 | 0.00 | 95 | 1013.2 |
| 20260502222706 | 54 | 1 | 1.0 | 5.0 | 0.00 | 0.00 | 0.00 | 95 | 1013.2 |
| 20260502222204 | 53 | 350 | 1.0 | 5.0 | 0.00 | 0.00 | 0.00 | 94 | 1013.2 |
| 20260502221701 | 54 | 19 | 2.0 | 4.0 | 0.00 | 0.00 | 0.00 | 95 | 1013.2 |
| 20260502221159 | 54 | 2 | 0.0 | 5.0 | 0.00 | 0.00 | 0.00 | 94 | 1013.2 |
| 20260502220657 | 54 | 352 | 3.0 | 6.0 | 0.00 | 0.00 | 0.00 | 94 | 1012.8 |
| 20260502220155 | 54 | 359 | 1.0 | 4.0 | 0.00 | 0.00 | 0.00 | 96 | 1012.8 |
| 20260502215653 | 54 | 67 | 3.0 | 3.0 | 0.00 | 0.00 | 0.00 | 97 | 1012.8 |
| 20260502215150 | 54 | 46 | 0.0 | 6.0 | 0.00 | 0.00 | 0.00 | 96 | 1012.8 |
| 20260502214648 | 54 | 29 | 3.0 | 6.0 | 0.00 | 0.00 | 0.00 | 96 | 1012.8 |
| 20260502214146 | 54 | 57 | 3.0 | 4.0 | 0.00 | 0.00 | 0.00 | 96 | 1012.8 |
| 20260502213644 | 54 | 21 | 2.0 | 6.0 | 0.00 | 0.00 | 0.00 | 97 | 1012.8 |
| 20260502213142 | 54 | 69 | 1.0 | 3.0 | 0.00 | 0.00 | 0.00 | 97 | 1012.8 |
| 20260502212640 | 54 | 92 | 3.0 | 4.0 | 0.00 | 0.00 | 0.00 | 96 | 1012.8 |
| 20260502212138 | 54 | 66 | 3.0 | 5.0 | 0.00 | 0.00 | 0.00 | 96 | 1013.2 |
| 20260502211635 | 53 | 22 | 3.0 | 4.0 | 0.00 | 0.00 | 0.00 | 95 | 1013.2 |
| 20260502211133 | 54 | 6 | 4.0 | 6.0 | 0.00 | 0.00 | 0.00 | 94 | 1012.8 |
| 20260502210631 | 54 | 33 | 5.0 | 10.0 | 0.00 | 0.00 | 0.00 | 94 | 1013.2 |
| 20260502210129 | 54 | 15 | 7.0 | 7.0 | 0.00 | 0.00 | 0.00 | 93 | 1012.8 |
| 20260502205627 | 54 | 4 | 4.0 | 8.0 | 0.00 | 0.00 | 0.00 | 95 | 1012.8 |
| 20260502205124 | 54 | 340 | 3.0 | 4.0 | 0.00 | 0.00 | 0.00 | 97 | 1012.8 |
| 20260502204622 | 54 | 5 | 4.0 | 4.0 | 0.00 | 0.00 | 0.00 | 96 | 1012.8 |
| 20260502204120 | 54 | 19 | 4.0 | 7.0 | 0.00 | 0.00 | 0.00 | 95 | 1012.8 |
| 20260502203618 | 54 | 349 | 2.0 | 7.0 | 0.00 | 0.00 | 0.00 | 96 | 1012.8 |
| 20260502203116 | 54 | 58 | 3.0 | 6.0 | 0.00 | 0.00 | 0.00 | 97 | 1012.8 |
| 20260502202613 | 53 | 359 | 4.0 | 7.0 | 0.00 | 0.00 | 0.39 | 96 | 1013.2 |
| 20260502202111 | 53 | 16 | 6.0 | 8.0 | 0.00 | 0.00 | 0.39 | 95 | 1013.2 |
| 20260502201609 | 53 | 56 | 7.0 | 9.0 | 0.00 | 0.00 | 0.39 | 96 | 1013.2 |
| 20260502201107 | 53 | 26 | 6.0 | 8.0 | 0.00 | 0.00 | 0.38 | 95 | 1013.2 |
| 20260502200605 | 54 | 8 | 7.0 | 7.0 | 0.00 | 0.00 | 0.38 | 97 | 1013.2 |
| 20260502195600 | 54 | 42 | 7.0 | 7.0 | 0.00 | 0.00 | 0.38 | 96 | 1013.2 |
| 20260502195058 | 54 | 20 | 3.0 | 5.0 | 0.00 | 0.00 | 0.38 | 98 | 1013.2 |
| 20260502194555 | 54 | 11 | 4.0 | 4.0 | 0.00 | 0.00 | 0.38 | 98 | 1013.2 |
| 20260502194053 | 53 | 11 | 6.0 | 9.0 | 0.00 | 0.00 | 0.38 | 98 | 1013.2 |
| 20260502193550 | 53 | 18 | 9.0 | 9.0 | 0.00 | 0.00 | 0.38 | 97 | 1013.2 |
| 20260502193048 | 53 | 67 | 4.0 | 9.0 | 0.00 | 0.00 | 0.38 | 98 | 1013.2 |
| 20260502192546 | 53 | 19 | 5.0 | 10.0 | 0.00 | 0.00 | 0.38 | 98 | 1013.2 |
| 20260502192044 | 53 | 8 | 3.0 | 7.0 | 0.00 | 0.00 | 0.38 | 99 | 1013.5 |
| 20260502191542 | 53 | 19 | 2.0 | 6.0 | 0.00 | 0.00 | 0.37 | 98 | 1013.5 |
| 20260502191040 | 53 | 1 | 3.0 | 7.0 | 0.00 | 0.00 | 0.37 | 98 | 1013.5 |
| 20260502190537 | 53 | 24 | 4.0 | 8.0 | 0.00 | 0.00 | 0.37 | 97 | 1013.5 |
| 20260502190035 | 53 | 48 | 7.0 | 8.0 | 0.00 | 0.00 | 0.36 | 98 | 1013.5 |
| 20260502185533 | 53 | 338 | 5.0 | 7.0 | 0.00 | 0.00 | 0.36 | 98 | 1013.5 |
| 20260502185031 | 53 | 4 | 8.0 | 8.0 | 0.00 | 0.00 | 0.36 | 97 | 1013.5 |
| 20260502184528 | 53 | 349 | 7.0 | 10.0 | 0.00 | 0.00 | 0.36 | 97 | 1013.5 |
| 20260502184026 | 53 | 321 | 4.0 | 7.0 | 0.00 | 0.00 | 0.36 | 98 | 1013.5 |
| 20260502183524 | 53 | 49 | 7.0 | 12.0 | 0.00 | 0.00 | 0.36 | 98 | 1013.5 |
| 20260502183022 | 53 | 57 | 7.0 | 8.0 | 0.00 | 0.00 | 0.35 | 98 | 1013.5 |
| 20260502182519 | 53 | 1 | 4.0 | 8.0 | 0.00 | 0.00 | 0.35 | 98 | 1012.8 |
| 20260502182018 | 53 | 35 | 4.0 | 8.0 | 0.00 | 0.00 | 0.35 | 98 | 1013.2 |
| 20260502181515 | 53 | 29 | 5.0 | 6.0 | 0.00 | 0.00 | 0.35 | 99 | 1013.5 |
| 20260502181013 | 53 | 81 | 2.0 | 6.0 | 0.00 | 0.00 | 0.35 | 98 | 1013.8 |
| 20260502180511 | 53 | 27 | 4.0 | 8.0 | 0.00 | 0.00 | 0.35 | 98 | 1013.5 |
| 20260502170442 | 53 | 15 | 3.0 | 10.0 | 0.00 | 0.00 | 0.34 | 99 | 1013.8 |
| 20260502163931 | 53 | 340 | 6.0 | 6.0 | 0.00 | 0.00 | 0.32 | 99 | 1014.2 |
| 20260502163430 | 53 | 59 | 6.0 | 11.0 | 0.00 | 0.00 | 0.32 | 99 | 1014.2 |
| 20260502162927 | 53 | 61 | 6.0 | 8.0 | 0.00 | 0.00 | 0.31 | 99 | 1014.5 |
| 20260502162426 | 53 | 55 | 8.0 | 10.0 | 0.00 | 0.00 | 0.31 | 100 | 1014.5 |
| 20260502161923 | 53 | 80 | 7.0 | 9.0 | 0.00 | 0.00 | 0.00 | 100 | 1014.5 |
| 20260502161421 | 53 | 55 | 6.0 | 9.0 | 0.00 | 0.00 | 0.00 | 100 | 1014.9 |
| 20260502160919 | 53 | 9 | 6.0 | 10.0 | 0.00 | 0.00 | 0.29 | 100 | 1014.9 |
| 20260502160417 | 53 | 46 | 3.0 | 11.0 | 0.00 | 0.00 | 0.28 | 99 | 1014.9 |
| 20260502151857 | 54 | 354 | 8.0 | 11.0 | 0.00 | 0.00 | 0.26 | 100 | 1014.2 |
| 20260502151355 | 53 | 15 | 6.0 | 6.0 | 0.00 | 0.00 | 0.26 | 100 | 1014.2 |
| 20260502150853 | 53 | 355 | 6.0 | 6.0 | 0.00 | 0.00 | 0.26 | 100 | 1014.2 |
| 20260502150350 | 53 | 33 | 8.0 | 8.0 | 0.00 | 0.00 | 0.25 | 100 | 1014.2 |
| 20260502130742 | 53 | 66 | 4.0 | 4.0 | 0.00 | 0.00 | 0.15 | 99 | 1013.5 |
| 20260502130240 | 53 | 27 | 7.0 | 7.0 | 0.00 | 0.00 | 0.15 | 99 | 1013.5 |
| 20260502123728 | 53 | 5 | 1.0 | 6.0 | 0.00 | 0.00 | 0.14 | 99 | 1013.5 |
| 20260502123226 | 53 | 353 | 6.0 | 7.0 | 0.00 | 0.00 | 0.13 | 98 | 1013.5 |
| 20260502122724 | 53 | 4 | 3.0 | 6.0 | 0.00 | 0.00 | 0.13 | 99 | 1013.5 |
| 20260502122221 | 53 | 326 | 2.0 | 6.0 | 0.00 | 0.00 | 0.12 | 98 | 1013.5 |
| 20260502121719 | 53 | 21 | 4.0 | 8.0 | 0.00 | 0.00 | 0.12 | 98 | 1013.2 |
| 20260502121217 | 53 | 45 | 2.0 | 6.0 | 0.00 | 0.00 | 0.12 | 98 | 1013.2 |
| 20260502120715 | 53 | 21 | 6.0 | 9.0 | 0.00 | 0.00 | 0.12 | 98 | 1013.2 |
| 20260502120213 | 53 | 356 | 3.0 | 6.0 | 0.00 | 0.00 | 0.11 | 98 | 1013.2 |
| 20260502115710 | 53 | 326 | 3.0 | 8.0 | 0.00 | 0.00 | 0.11 | 98 | 1013.2 |
| 20260502115208 | 53 | 355 | 6.0 | 6.0 | 0.00 | 0.00 | 0.00 | 98 | 1013.2 |
| 20260502114706 | 53 | 5 | 2.0 | 6.0 | 0.00 | 0.00 | 0.00 | 98 | 1013.5 |
| 20260502114204 | 53 | 25 | 6.0 | 6.0 | 0.00 | 0.00 | 0.09 | 98 | 1013.5 |
| 20260502113700 | 53 | 11 | 6.0 | 7.0 | 0.00 | 0.00 | 0.09 | 98 | 1013.2 |
| 20260502113158 | 53 | 0 | 3.0 | 7.0 | 0.00 | 0.00 | 0.08 | 99 | 1013.5 |
| 20260502112656 | 53 | 354 | 3.0 | 7.0 | 0.00 | 0.00 | 0.08 | 99 | 1013.5 |
| 20260502112153 | 53 | 10 | 3.0 | 6.0 | 0.00 | 0.00 | 0.08 | 99 | 1013.2 |
| 20260502111651 | 53 | 346 | 5.0 | 7.0 | 0.00 | 0.00 | 0.07 | 100 | 1013.2 |
| 20260502111149 | 53 | 345 | 4.0 | 7.0 | 0.00 | 0.00 | 0.07 | 100 | 1013.2 |
| 20260502110647 | 53 | 4 | 5.0 | 8.0 | 0.00 | 0.00 | 0.07 | 100 | 1013.5 |
| 20260502110145 | 53 | 355 | 4.0 | 7.0 | 0.00 | 0.00 | 0.07 | 100 | 1013.5 |
| 20260502105643 | 54 | 331 | 3.0 | 5.0 | 0.00 | 0.00 | 0.06 | 100 | 1013.5 |
| 20260502105140 | 53 | 348 | 3.0 | 4.0 | 0.00 | 0.00 | 0.06 | 100 | 1013.5 |
| 20260502104638 | 53 | 311 | 0.0 | 3.0 | 0.00 | 0.00 | 0.06 | 100 | 1013.5 |
| 20260502104136 | 53 | 358 | 2.0 | 3.0 | 0.00 | 0.00 | 0.06 | 100 | 1013.5 |
| 20260502103634 | 54 | 302 | 3.0 | 4.0 | 0.00 | 0.00 | 0.05 | 100 | 1013.5 |
| 20260502103132 | 54 | 229 | 0.0 | 5.0 | 0.00 | 0.00 | 0.05 | 100 | 1013.5 |
| 20260502102629 | 54 | 283 | 3.0 | 5.0 | 0.00 | 0.00 | 0.04 | 99 | 1013.5 |
| 20260502102127 | 54 | 300 | 3.0 | 5.0 | 0.00 | 0.00 | 0.04 | 99 | 1013.5 |
| 20260502101625 | 54 | 299 | 2.0 | 4.0 | 0.00 | 0.00 | 0.03 | 99 | 1013.5 |
| 20260502101122 | 54 | 283 | 3.0 | 4.0 | 0.00 | 0.00 | 0.02 | 99 | 1013.5 |
| 20260502100620 | 54 | 298 | 3.0 | 4.0 | 0.00 | 0.00 | 0.02 | 99 | 1013.2 |
| 20260502100118 | 54 | 300 | 2.0 | 3.0 | 0.00 | 0.00 | 0.02 | 99 | 1013.2 |
| 20260502091054 | 53 | 298 | 2.0 | 2.0 | 0.00 | 0.00 | 0.00 | 100 | 1013.2 |
| 20260502090552 | 53 | 355 | 0.0 | 0.0 | 0.00 | 0.00 | 0.00 | 100 | 1013.2 |
| 20260502071504 | 53 | 333 | 0.0 | 0.0 | 0.00 | 0.00 | 0.00 | 100 | 1012.8 |
| 20260502070959 | 53 | 53 | 0.0 | 0.0 | 0.00 | 0.00 | 0.00 | 100 | 1012.8 |
| 20260502070457 | 53 | 51 | 0.0 | 0.0 | 0.00 | 0.00 | 0.00 | 100 | 1012.8 |
| 20260502065955 | 53 | 336 | 0.0 | 0.0 | 0.00 | 0.00 | 0.00 | 100 | 1012.8 |
| 20260502065453 | 53 | 338 | 0.0 | 0.0 | 0.00 | 0.00 | 0.00 | 100 | 1012.8 |
| 20260502064951 | 53 | 21 | 0.0 | 0.0 | 0.00 | 0.00 | 0.00 | 100 | 1012.8 |
| 20260502064449 | 53 | 52 | 0.0 | 0.0 | 0.00 | 0.00 | 0.00 | 100 | 1012.8 |
| 20260502063946 | 53 | 353 | 0.0 | 0.0 | 0.00 | 0.00 | 0.00 | 100 | 1012.8 |
| 20260502063444 | 53 | 353 | 0.0 | 0.0 | 0.00 | 0.00 | 0.00 | 100 | 1012.8 |
| 20260502062942 | 53 | 117 | 0.0 | 0.0 | 0.00 | 0.00 | 0.00 | 100 | 1012.8 |
| 20260502062440 | 53 | 131 | 0.0 | 0.0 | 0.00 | 0.00 | 0.00 | 100 | 1013.2 |
| 20260502061938 | 53 | 8 | 0.0 | 0.0 | 0.00 | 0.00 | 0.00 | 100 | 1013.2 |
| 20260502061436 | 53 | 49 | 0.0 | 0.0 | 0.00 | 0.00 | 0.00 | 100 | 1013.2 |
| 20260502060934 | 53 | 65 | 0.0 | 0.0 | 0.00 | 0.00 | 0.00 | 100 | 1013.2 |
| 20260502060431 | 53 | 5 | 1.0 | 1.0 | 0.00 | 0.00 | 0.00 | 100 | 1013.5 |
| 20260502055929 | 53 | 46 | 0.0 | 0.0 | 0.00 | 0.00 | 0.00 | 100 | 1013.5 |
| 20260502055427 | 53 | 351 | 0.0 | 0.0 | 0.00 | 0.00 | 0.00 | 100 | 1013.5 |
| 20260502054924 | 53 | 2 | 0.0 | 0.0 | 0.00 | 0.00 | 0.00 | 100 | 1013.5 |
| 20260502054422 | 53 | 302 | 0.0 | 0.0 | 0.00 | 0.00 | 0.00 | 100 | 1013.5 |
| 20260502053920 | 53 | 343 | 0.0 | 2.0 | 0.00 | 0.00 | 0.00 | 100 | 1013.5 |
| 20260502053418 | 53 | 338 | 0.0 | 2.0 | 0.00 | 0.00 | 0.00 | 100 | 1013.5 |
| 20260502052915 | 53 | 292 | 0.0 | 0.0 | 0.00 | 0.00 | 0.00 | 100 | 1013.5 |
| 20260502052413 | 53 | 326 | 0.0 | 0.0 | 0.00 | 0.00 | 0.00 | 100 | 1013.5 |
| 20260502051911 | 53 | 17 | 0.0 | 0.0 | 0.00 | 0.00 | 0.00 | 100 | 1013.5 |
| 20260502051409 | 53 | 24 | 0.0 | 0.0 | 0.00 | 0.00 | 0.00 | 100 | 1013.8 |
| 20260502050907 | 52 | 314 | 0.0 | 0.0 | 0.00 | 0.00 | 0.00 | 100 | 1013.8 |
| 20260502050404 | 53 | 314 | 1.0 | 2.0 | 0.00 | 0.00 | 0.00 | 100 | 1013.8 |